Regional Weather Roundup
Issued by NWS

Home | Current Version | Previous Version | Graphics & Text | Print | Product List | Glossary On
Versions: 1 2 3 4 5 6 7 8 9 10 11 12 13 14 15 16 17 18 19 20 21 22 23 24 25 26 27 28 29 30 31 32 33 34 35 36 37 38 39 40 41 42 43 44 45 46 47 48 49 50
000
ASUS43 KDTX 060201
RWRMI
MICHIGAN HOURLY REGIONAL WEATHER ROUNDUP
NATIONAL WEATHER SERVICE DETROIT/PONTIAC MI
900 PM EST FRI FEB 05 2016

NOTE: "FAIR" INDICATES FEW OR NO CLOUDS BELOW 12,000 FEET WITH NO
SIGNIFICANT WEATHER AND/OR OBSTRUCTION TO VISIBILITY.

MIZ047>049-052>055-059>063-066>070-074>076-081>083-060300-
SOUTHEAST LOWER MICHIGAN

CITY           SKY/WX    TMP DP  RH WIND       PRES   REMARKS
ADRIAN         CLOUDY    38  24  57 W6        30.30F WCI  33
ALMA           PTCLDY    29  23  78 W7        30.29F WCI  22
ANN ARBOR      MOCLDY    29  26  89 SW5       30.28F WCI  24
BAD AXE        LGT SNOW  30  28  93 SW3       30.28S
CARO           FLURRIES  30  28  92 W3        30.27F
DETROIT CITY   CLOUDY    36  22  56 SW9       30.29S WCI  29
DETROIT        CLOUDY    34  26  72 W8        30.30S WCI  27
FLINT          CLOUDY    33  27  78 W8        30.29S WCI  26
GROSSE ILE     CLOUDY    36  27  69 W6        30.28S WCI  31
HILLSDALE      CLOUDY    30  27  90 W9        30.28S WCI  21
HOWELL         CLOUDY    31  29  92 W5        30.27F WCI  26

CITY           SKY/WX    TMP DP  RH WIND       PRES   REMARKS
JACKSON        CLOUDY    30  25  81 W9        30.28F WCI  22
LAMBERTVILLE   CLOUDY    32  24  72 SW7       30.31S WCI  26
LANSING        CLOUDY    28  22  78 W14       30.30S WCI  17
LAPEER         FLURRIES  31  29  92 CALM      30.28S
MASON          CLOUDY    30  26  87 W9        30.28F WCI  21
MONROE         CLOUDY    34  26  74 W5        30.30S WCI  30
MT. CLEMENS    CLOUDY    31  27  82 S5        30.27S WCI  27
PONTIAC        CLOUDY    30  27  88 W5        30.26F WCI  25
PORT HOPE        N/A     30  28  92 SW3       30.26F
PORT HURON     CLOUDY    32  25  74 CALM      30.28S
TRI CITIES     MOCLDY    30  27  88 SW6       30.29F FOG     WCI  24
MIDLAND        CLOUDY    29  28  92 W3        30.28S
TROY           CLOUDY    34  28  79 W9        30.30S WCI  27
SAGINAW HB     CLOUDY    30  30 100 SW5       30.28F FOG     WCI  25
$$
MIZ043>046-050>051-056>058-064>065-071>073-077>080-060300-
SOUTHWEST LOWER MICHIGAN

CITY           SKY/WX    TMP DP  RH WIND       PRES   REMARKS
BATTLE CREEK   PTCLDY    27  20  75 W12       30.31F WCI  17
BENTON HARBOR  CLOUDY    29  23  78 CALM      30.32F
BIG RAPIDS     CLOUDY    25  17  73 W3        30.28F
COLDWATER      CLOUDY    29  24  82 W9        30.31S WCI  21
FREMONT        CLOUDY    24  16  71 CALM      30.30F
HOLLAND        CLOUDY    29  20  69 CALM      30.32F
GRAND RAPIDS   CLOUDY    27  19  72 NW9       30.31F WCI  18
IONIA          FAIR      27  20  73 W13       30.29F WCI  16
KALAMAZOO      CLOUDY    28  20  71 W6        30.31F WCI  22
LUDINGTON      CLOUDY    26  18  69 CALM      30.31F
MARSHALL       CLOUDY    29  23  79 W9        30.30S WCI  20
MOUNT PLEASANT PTCLDY    29  19  64 W5        30.28S WCI  24
MUSKEGON       CLOUDY    29  17  61 NW3       30.32F
SOUTH HAVEN    CLOUDY    29  22  74 CALM      30.32F
$$
MIZ016>042-060300-
NORTHERN LOWER MICHIGAN

CITY           SKY/WX    TMP DP  RH WIND       PRES   REMARKS
ALPENA         CLOUDY    14  12  92 CALM      30.27S
BEAVER ISLAND  MOCLDY    25  17  69 SW6       30.24F WCI  18
BELLAIRE       CLOUDY    21  17  85 CALM      30.28F
CADILLAC       CLOUDY    15  13  89 CALM      30.24F
CHARLEVOIX     CLOUDY    27  17  67 S6        30.28F WCI  20
FRANKFORT      CLOUDY    26  17  68 W3        30.28F
GAYLORD        CLOUDY    20  15  81 W5        30.22F WCI  13
GRAYLING       CLOUDY    15  13  91 SW3       30.26S
HARBOR SPRINGS CLOUDY    27  18  69 SW9       30.24F WCI  18
HOUGHTON LAKE  CLOUDY    19  16  88 CALM      30.26S
MANISTEE       CLOUDY    23  14  68 CALM      30.30F
OSCODA         CLOUDY    28  24  86 W5        30.27S WCI  23
PELLSTON       PTCLDY     8   6  92 CALM      30.25F
ROGERS CITY    PTCLDY    17  11  78 SW5       30.27S WCI   9
TRAVERSE CITY  CLOUDY    23  15  71 CALM      30.28F
$$
MIZ007>008-015-060300-
EASTERN UPPER MICHIGAN

CITY           SKY/WX    TMP DP  RH WIND       PRES   REMARKS
KINROSS        MOCLDY    19  18  93 CALM      30.22F
MACKINAC ISLAN PTCLDY    20  18  90 SW3       30.22F
NEWBERRY       PTCLDY    12  10  90 S3        30.20F
S. S. MARIE    MOCLDY    23  13  65 S7        30.22F WCI  15
$$
MIZ004>006-011>014-085-060300-
CENTRAL UPPER MICHIGAN

CITY           SKY/WX    TMP DP  RH WIND       PRES   REMARKS
MANISTIQUE     CLOUDY    25  18  74 SW6       30.22F WCI  18
ESCANABA       CLOUDY    25  16  68 SW10      30.22F WCI  15
MENOMINEE      CLOUDY    21  12  68 SW8       30.24F WCI  12
SAWYER-GWINN   CLOUDY    21  12  68 S12       30.14F WCI   9
$$
MIZ001>003-009>011-084-060300-
WESTERN UPPER MICHIGAN

CITY           SKY/WX    TMP DP  RH WIND       PRES   REMARKS
IRON MOUNTAIN  CLOUDY    26   9  48 SW6       30.16F WCI  19
HOUGHTON       CLOUDY    23  12  62 SW9       30.07F WCI  13
COPPER HARBOR    N/A     27  16  63 VRB6G20   30.10F WCI  20
IRONWOOD       CLOUDY    25  10  54 SW14      30.07F WCI  13
$$

ABBREVIATIONS USED IN REMARKS
   TC - TEMPERATURE IN CELSIUS
  WCI - WIND CHILL INDEX
   HX - HEAT INDEX
  VSB - VISIBILITY




USA.gov is the U.S. government's official web portal to all federal, state and local government web resources and services.